Weather History for KBKV - January, 2014

Change the Weather History Date:

Thursday, January 30, 2014

  Actual Average Record
Temperature  
Mean Temperature 42 °F -  
Max Temperature 46 °F 67 °F 84 °F (2002)
Min Temperature 39 °F 44 °F 30 °F (2007)
Degree Days  
Heating Degree Days 22    
Moisture  
Dew Point 41 °F    
Average Humidity 93    
Maximum Humidity 97    
Minimum Humidity 89    
Precipitation  
Precipitation 0.38 in - - ()
Sea Level Pressure  
Sea Level Pressure 30.18 in    
Wind  
Wind Speed 8 mph (NNE)    
Max Wind Speed 13 mph    
Max Gust Speed -    
Visibility 8 miles    
Events Rain    
Averages and records for this station are not official NWS values.
T = Trace of Precipitation, MM = Missing Value Source: NWS Daily Summary

Daily Weather History Graph

Daily Weather History Graph

Search for Another Location

Airport or City:

Trip Planner

Search our weather history database for the weather conditions in past years. The results will help you decide how hot, cold, wet, or windy it might be!

Date:

Astronomy

Jan. 30, 2014 Rise Set
Actual Time 7:18 AM EST 6:07 PM EST
Civil Twilight 6:53 AM EST 6:32 PM EST
Nautical Twilight 6:25 AM EST 7:00 PM EST
Astronomical Twilight 5:57 AM EST 7:28 PM EST
Moon 6:46 AM EST (1/30) 6:13 PM EST (1/30)
Length of Visible Light 11h 38m
Length of Day
10h 49m
Waning Crescent, 0% of the Moon is Illuminated
Jan 30
Waning Crescent
Jan 30
New
Feb 6
First Quarter
Feb 14
Full
Feb 22
Last Quarter

Hourly Weather History & Observations

Time (EST) Temp. Windchill Dew Point Humidity Pressure Visibility Wind Dir Wind Speed Gust Speed Precip Events Conditions
12:12 AM 41.0 °F 35.8 °F 39.9 °F 96% 30.22 in 10.0 mi North 8.1 mph - 0.00 in Rain Light Rain
12:20 AM 41.0 °F 36.4 °F 39.9 °F 96% 30.23 in 8.0 mi North 6.9 mph - 0.01 in Rain Light Rain
12:33 AM 41.0 °F 35.8 °F 39.9 °F 96% 30.23 in 7.0 mi North 8.1 mph - 0.03 in Rain Light Rain
12:53 AM 41.0 °F 34.3 °F 39.9 °F 96% 30.19 in 6.0 mi NE 11.5 mph - 0.05 in Rain Light Rain
1:39 AM 41.0 °F 34.7 °F 39.0 °F 93% 30.19 in 9.0 mi NNE 10.4 mph - 0.02 in Rain Light Rain
1:49 AM 41.0 °F 35.8 °F 39.2 °F 93% 30.19 in 9.0 mi North 8.1 mph - 0.02 in Rain Light Rain
1:53 AM 41.0 °F 36.4 °F 39.0 °F 93% 30.19 in 9.0 mi NNE 6.9 mph - 0.02 in Rain Light Rain
2:02 AM 41.0 °F 35.8 °F 39.0 °F 93% 30.19 in 7.0 mi North 8.1 mph - 0.02 in Rain Light Rain
2:35 AM 39.9 °F 35.1 °F 39.0 °F 97% 30.19 in 6.0 mi NNE 6.9 mph - 0.07 in Rain Light Rain
2:53 AM 39.9 °F 33.9 °F 39.0 °F 97% 30.19 in 6.0 mi North 9.2 mph - 0.10 in Rain Rain
3:24 AM 39.9 °F 33.4 °F 37.9 °F 93% 30.17 in 7.0 mi NNE 10.4 mph - 0.09 in Rain Light Rain
3:39 AM 39.9 °F 32.9 °F 37.9 °F 93% 30.17 in 7.0 mi NNE 11.5 mph - 0.12 in Rain Light Rain
3:53 AM 39.0 °F 32.8 °F 37.9 °F 96% 30.19 in 8.0 mi North 9.2 mph - 0.15 in Rain Light Rain
4:16 AM 39.0 °F 32.8 °F 37.9 °F 96% 30.18 in 10.0 mi NNE 9.2 mph - 0.01 in Rain Light Rain
4:53 AM 39.0 °F 32.3 °F 37.0 °F 93% 30.16 in 10.0 mi NE 10.4 mph - 0.03 in Rain Light Rain
5:53 AM 39.0 °F 34.0 °F 37.0 °F 93% 30.20 in 10.0 mi NNE 6.9 mph - 0.01 in   Overcast
6:53 AM 39.0 °F 33.4 °F 37.0 °F 93% 30.19 in 10.0 mi NE 8.1 mph - N/A   Overcast
7:53 AM 39.0 °F 32.8 °F 37.0 °F 93% 30.21 in 10.0 mi North 9.2 mph - N/A   Overcast
8:51 AM 39.2 °F 33.0 °F 37.4 °F 93% 30.20 in 4.0 mi NE 9.2 mph - 0.02 in Rain Light Rain
8:53 AM 39.9 °F 33.4 °F 37.9 °F 93% 30.20 in 4.0 mi NE 10.4 mph - 0.02 in Rain Light Rain
9:20 AM 41.0 °F 35.2 °F 39.0 °F 93% 30.21 in 8.0 mi NE 9.2 mph - 0.00 in   Overcast
9:53 AM 42.1 °F 37.7 °F 39.9 °F 92% 30.22 in 10.0 mi NE 6.9 mph - 0.00 in   Overcast
10:08 AM 42.1 °F 37.1 °F 39.9 °F 92% 30.23 in 10.0 mi NNE 8.1 mph - N/A   Overcast
10:48 AM 42.8 °F 39.3 °F 41.0 °F 93% 30.23 in 7.0 mi NNE 5.8 mph - N/A   Overcast
10:53 AM 43.0 °F 38.8 °F 41.0 °F 93% 30.23 in 6.0 mi NNE 6.9 mph - N/A   Overcast
11:53 AM 43.0 °F 36.8 °F 41.0 °F 93% 30.21 in 8.0 mi NNE 11.5 mph - N/A   Overcast
12:01 PM 43.0 °F 37.7 °F 41.0 °F 93% 30.22 in 9.0 mi North 9.2 mph - N/A   Overcast
12:53 PM 44.1 °F 37.7 °F 42.1 °F 93% 30.18 in 10.0 mi NNE 12.7 mph - N/A   Overcast
1:05 PM 44.1 °F 39.0 °F 42.1 °F 93% 30.17 in 10.0 mi NNE 9.2 mph - N/A   Overcast
1:53 PM 44.1 °F 40.8 °F 42.1 °F 93% 30.16 in 5.0 mi NE 5.8 mph - N/A   Overcast
2:53 PM 46.0 °F 41.4 °F 43.0 °F 89% 30.14 in 10.0 mi NNE 9.2 mph - N/A   Overcast
3:01 PM 46.0 °F 41.9 °F 43.0 °F 89% 30.14 in 10.0 mi NNE 8.1 mph - N/A   Overcast
3:36 PM 45.0 °F 40.6 °F 43.0 °F 93% 30.14 in 10.0 mi NE 8.1 mph - N/A   Overcast
3:53 PM 46.0 °F 41.9 °F 43.0 °F 89% 30.14 in 10.0 mi NNE 8.1 mph - N/A   Overcast
4:53 PM 46.0 °F 43.1 °F 44.1 °F 93% 30.15 in 10.0 mi NNE 5.8 mph - N/A   Overcast
5:53 PM 46.9 °F - 44.1 °F 90% 30.16 in 8.0 mi NE 5.8 mph - N/A   Overcast
6:53 PM 46.0 °F 43.1 °F 44.1 °F 93% 30.15 in 9.0 mi NE 5.8 mph - N/A   Overcast
7:35 PM 46.0 °F 42.5 °F 44.1 °F 93% 30.16 in 6.0 mi NE 6.9 mph - N/A   Overcast
7:46 PM 46.0 °F 42.5 °F 44.1 °F 93% 30.16 in 4.0 mi NE 6.9 mph - N/A   Overcast
7:53 PM 46.0 °F 43.1 °F 44.1 °F 93% 30.16 in 3.0 mi North 5.8 mph - N/A   Overcast
8:46 PM 46.0 °F 42.5 °F 44.1 °F 93% 30.16 in 6.0 mi NE 6.9 mph - N/A   Overcast
8:53 PM 46.0 °F 43.1 °F 44.1 °F 93% 30.15 in 7.0 mi NE 5.8 mph - N/A   Overcast
9:49 PM 46.4 °F 42.4 °F 44.6 °F 93% 30.14 in 9.0 mi ENE 8.1 mph - N/A   Overcast
9:53 PM 46.0 °F 43.1 °F 44.1 °F 93% 30.14 in 9.0 mi ENE 5.8 mph - N/A   Overcast
10:53 PM 46.0 °F 43.1 °F 44.1 °F 93% 30.15 in 10.0 mi North 5.8 mph - N/A   Overcast
11:53 PM 46.0 °F 42.5 °F 44.1 °F 93% 30.14 in 8.0 mi ENE 6.9 mph - N/A   Overcast